| time (UTC) | temp F | wind direction | speed MPH | gust MPH | rain 1hr in | rain 24hr in | rain mn in | humidity % | barometer mb |
| 20260508093014 | 60 | 167 | 9.0 | 13.0 | 0.00 | 0.00 | 0.00 | 77 | 1028.7 |
| 20260508091510 | 60 | 204 | 8.0 | 13.0 | 0.00 | 0.00 | 0.00 | 76 | 1028.6 |
| 20260508090020 | 60 | 187 | 10.0 | 14.0 | 0.00 | 0.00 | 0.00 | 79 | 1028.7 |
| 20260508084506 | 60 | 197 | 12.0 | 18.0 | 0.00 | 0.00 | 0.00 | 79 | 1028.5 |
| 20260508083006 | 60 | 187 | 10.0 | 14.0 | 0.00 | 0.00 | 0.00 | 81 | 1028.5 |
| 20260508081554 | 60 | 217 | 12.0 | 17.0 | 0.00 | 0.00 | 0.00 | 79 | 1028.4 |
| 20260508080049 | 60 | 199 | 12.0 | 17.0 | 0.00 | 0.00 | 0.00 | 81 | 1028.3 |
| 20260508074551 | 60 | 211 | 14.0 | 19.0 | 0.00 | 0.00 | 0.00 | 84 | 1028.2 |
| 20260508073048 | 60 | 175 | 9.0 | 14.0 | 0.00 | 0.00 | 0.00 | 85 | 1028.2 |
| 20260508071547 | 60 | 189 | 9.0 | 15.0 | 0.00 | 0.00 | 0.00 | 82 | 1028.2 |
| 20260508070045 | 60 | 177 | 10.0 | 16.0 | 0.00 | 0.00 | 0.00 | 85 | 1028.2 |
| 20260508064545 | 60 | 223 | 11.0 | 15.0 | 0.00 | 0.00 | 0.00 | 83 | 1028.2 |
| 20260508063048 | 62 | 204 | 12.0 | 17.0 | 0.00 | 0.00 | 0.00 | 81 | 1028.1 |
| 20260508061528 | 61 | 216 | 14.0 | 19.0 | 0.00 | 0.00 | 0.00 | 78 | 1028.2 |
| 20260508060032 | 62 | 232 | 15.0 | 21.0 | 0.00 | 0.00 | 0.00 | 77 | 1028.2 |
| 20260508054525 | 63 | 206 | 15.0 | 19.0 | 0.00 | 0.00 | 0.00 | 76 | 1028.0 |
| 20260508053033 | 62 | 215 | 15.0 | 19.0 | 0.00 | 0.00 | 0.00 | 76 | 1028.0 |
| 20260508051511 | 63 | 200 | 11.0 | 18.0 | 0.00 | 0.00 | 0.00 | 77 | 1028.1 |
| 20260508050050 | 62 | 219 | 10.0 | 16.0 | 0.00 | 0.00 | 0.00 | 80 | 1028.3 |
| 20260508044532 | 61 | 234 | 12.0 | 16.0 | 0.00 | 0.00 | 0.00 | 84 | 1028.4 |
| 20260508043029 | 61 | 213 | 11.0 | 18.0 | 0.00 | 0.00 | 0.00 | 83 | 1028.4 |
| 20260508041510 | 60 | 211 | 13.0 | 20.0 | 0.00 | 0.00 | 0.00 | 86 | 1028.6 |
| 20260508040011 | 59 | 279 | 8.0 | 15.0 | 0.00 | 0.00 | 0.00 | 89 | 1028.7 |
| 20260508034552 | 61 | 248 | 13.0 | 19.0 | 0.00 | 0.00 | 0.00 | 84 | 1028.8 |
| 20260508033050 | 60 | 217 | 11.0 | 16.0 | 0.00 | 0.00 | 0.00 | 88 | 1029.1 |
| 20260508031547 | 61 | 221 | 15.0 | 19.0 | 0.00 | 0.00 | 0.00 | 82 | 1029.2 |
| 20260508030047 | 61 | 240 | 10.0 | 18.0 | 0.00 | 0.00 | 0.00 | 81 | 1029.3 |
| 20260508024543 | 61 | 242 | 11.0 | 17.0 | 0.00 | 0.00 | 0.00 | 79 | 1029.5 |
| 20260508023043 | 61 | 230 | 10.0 | 19.0 | 0.00 | 0.00 | 0.00 | 82 | 1029.7 |
| 20260508021547 | 60 | 223 | 14.0 | 19.0 | 0.00 | 0.00 | 0.00 | 81 | 1029.8 |
| 20260508020039 | 62 | 239 | 10.0 | 15.0 | 0.00 | 0.00 | 0.00 | 76 | 1029.9 |
| 20260508014526 | 61 | 231 | 9.0 | 14.0 | 0.00 | 0.00 | 0.00 | 77 | 1030.1 |
| 20260508013033 | 60 | 215 | 11.0 | 19.0 | 0.00 | 0.00 | 0.00 | 78 | 1030.3 |
| 20260508011520 | 61 | 235 | 13.0 | 20.0 | 0.00 | 0.00 | 0.00 | 76 | 1030.5 |
| 20260508010017 | 60 | 218 | 8.0 | 14.0 | 0.00 | 0.00 | 0.00 | 77 | 1030.5 |
| 20260508004529 | 59 | 233 | 11.0 | 19.0 | 0.00 | 0.00 | 0.00 | 78 | 1030.5 |
| 20260508003012 | 59 | 225 | 11.0 | 17.0 | 0.00 | 0.00 | 0.00 | 76 | 1030.3 |
| 20260508001516 | 60 | 223 | 13.0 | 18.0 | 0.00 | 0.00 | 0.00 | 76 | 1030.2 |
| 20260508000009 | 59 | 231 | 10.0 | 18.0 | 0.00 | 0.00 | 0.00 | 75 | 1030.2 |
| 20260507234552 | 59 | 220 | 10.0 | 14.0 | 0.00 | 0.00 | 0.00 | 75 | 1030.2 |
| 20260507233048 | 59 | 215 | 10.0 | 16.0 | 0.00 | 0.00 | 0.00 | 74 | 1030.2 |
| 20260507231547 | 59 | 218 | 11.0 | 16.0 | 0.00 | 0.00 | 0.00 | 74 | 1030.1 |
| 20260507230042 | 59 | 207 | 11.0 | 18.0 | 0.00 | 0.00 | 0.00 | 73 | 1030.0 |
| 20260507224539 | 59 | 223 | 12.0 | 17.0 | 0.00 | 0.00 | 0.00 | 74 | 1029.9 |
| 20260507223038 | 59 | 213 | 12.0 | 19.0 | 0.00 | 0.00 | 0.00 | 75 | 1029.8 |
| 20260507221535 | 59 | 223 | 12.0 | 19.0 | 0.00 | 0.00 | 0.00 | 74 | 1029.5 |
| 20260507220035 | 59 | 213 | 11.0 | 15.0 | 0.00 | 0.00 | 0.00 | 73 | 1029.3 |
| 20260507214531 | 59 | 223 | 9.0 | 14.0 | 0.00 | 0.00 | 0.00 | 74 | 1029.2 |
| 20260507213014 | 59 | 239 | 8.0 | 15.0 | 0.00 | 0.00 | 0.00 | 73 | 1029.0 |
| 20260507211514 | 59 | 230 | 8.0 | 12.0 | 0.00 | 0.00 | 0.00 | 74 | 1029.0 |
| 20260507210031 | 59 | 235 | 10.0 | 14.0 | 0.00 | 0.00 | 0.00 | 74 | 1029.0 |
| 20260507204513 | 59 | 211 | 7.0 | 13.0 | 0.00 | 0.00 | 0.00 | 73 | 1028.9 |
| 20260507203012 | 58 | 197 | 8.0 | 14.0 | 0.00 | 0.00 | 0.00 | 71 | 1028.9 |
| 20260507201511 | 58 | 212 | 13.0 | 17.0 | 0.00 | 0.00 | 0.00 | 73 | 1028.9 |
| 20260507200013 | 58 | 210 | 10.0 | 19.0 | 0.00 | 0.00 | 0.00 | 74 | 1028.9 |
| 20260507194511 | 59 | 249 | 8.0 | 14.0 | 0.00 | 0.00 | 0.00 | 74 | 1028.9 |
| 20260507193006 | 59 | 234 | 10.0 | 16.0 | 0.00 | 0.00 | 0.00 | 74 | 1028.9 |
| 20260507191506 | 59 | 211 | 10.0 | 15.0 | 0.00 | 0.00 | 0.00 | 74 | 1028.8 |
| 20260507190006 | 59 | 224 | 9.0 | 13.0 | 0.00 | 0.00 | 0.00 | 73 | 1028.7 |
| 20260507184514 | 58 | 217 | 10.0 | 16.0 | 0.00 | 0.00 | 0.00 | 72 | 1028.7 |
| 20260507183004 | 58 | 222 | 9.0 | 16.0 | 0.00 | 0.00 | 0.00 | 71 | 1028.7 |
| 20260507181503 | 58 | 210 | 10.0 | 17.0 | 0.00 | 0.00 | 0.00 | 72 | 1028.7 |
| 20260507180054 | 59 | 212 | 14.0 | 18.0 | 0.00 | 0.00 | 0.00 | 72 | 1028.8 |
| 20260507174551 | 59 | 213 | 13.0 | 18.0 | 0.00 | 0.00 | 0.00 | 74 | 1028.8 |
| 20260507173049 | 59 | 213 | 13.0 | 18.0 | 0.00 | 0.00 | 0.00 | 73 | 1028.8 |
| 20260507171551 | 59 | 252 | 13.0 | 18.0 | 0.00 | 0.00 | 0.00 | 74 | 1028.8 |
| 20260507170048 | 59 | 190 | 11.0 | 16.0 | 0.00 | 0.00 | 0.00 | 70 | 1028.8 |
| 20260507164547 | 59 | 200 | 11.0 | 17.0 | 0.00 | 0.00 | 0.00 | 71 | 1028.9 |
| 20260507163046 | 59 | 237 | 10.0 | 18.0 | 0.00 | 0.00 | 0.00 | 72 | 1029.0 |
| 20260507161548 | 59 | 210 | 9.0 | 18.0 | 0.00 | 0.00 | 0.00 | 72 | 1029.0 |
| 20260507160030 | 59 | 237 | 10.0 | 15.0 | 0.00 | 0.00 | 0.00 | 71 | 1029.0 |
| 20260507154534 | 58 | 215 | 13.0 | 17.0 | 0.00 | 0.00 | 0.00 | 73 | 1029.2 |
| 20260507153039 | 59 | 209 | 14.0 | 17.0 | 0.00 | 0.00 | 0.00 | 71 | 1029.3 |
| 20260507151529 | 59 | 202 | 13.0 | 20.0 | 0.00 | 0.00 | 0.00 | 71 | 1029.2 |
| 20260507150030 | 59 | 206 | 12.0 | 17.0 | 0.00 | 0.00 | 0.00 | 70 | 1029.3 |
| 20260507144527 | 58 | 210 | 11.0 | 17.0 | 0.00 | 0.00 | 0.00 | 68 | 1029.3 |
| 20260507143027 | 58 | 213 | 13.0 | 16.0 | 0.00 | 0.00 | 0.00 | 67 | 1029.3 |
| 20260507141525 | 58 | 225 | 10.0 | 16.0 | 0.00 | 0.00 | 0.00 | 67 | 1029.3 |
| 20260507140011 | 58 | 235 | 7.0 | 15.0 | 0.00 | 0.00 | 0.00 | 68 | 1029.3 |
| 20260507134507 | 58 | 228 | 12.0 | 17.0 | 0.00 | 0.00 | 0.00 | 67 | 1029.4 |
| 20260507133051 | 58 | 208 | 16.0 | 20.0 | 0.00 | 0.00 | 0.00 | 68 | 1029.4 |
| 20260507131609 | 58 | 220 | 11.0 | 16.0 | 0.00 | 0.00 | 0.00 | 69 | 1029.4 |
| 20260507130039 | 58 | 207 | 14.0 | 17.0 | 0.00 | 0.00 | 0.00 | 69 | 1029.5 |
| 20260507124533 | 57 | 211 | 11.0 | 19.0 | 0.00 | 0.00 | 0.00 | 72 | 1029.8 |
| 20260507123032 | 58 | 219 | 14.0 | 21.0 | 0.00 | 0.00 | 0.00 | 73 | 1029.9 |
| 20260507121531 | 58 | 223 | 14.0 | 19.0 | 0.00 | 0.00 | 0.00 | 71 | 1029.9 |
| 20260507120030 | 57 | 225 | 8.0 | 16.0 | 0.00 | 0.00 | 0.00 | 75 | 1029.8 |
| 20260507114529 | 58 | 207 | 16.0 | 21.0 | 0.00 | 0.00 | 0.00 | 72 | 1029.8 |
| 20260507113028 | 58 | 220 | 16.0 | 20.0 | 0.00 | 0.00 | 0.00 | 71 | 1029.6 |
| 20260507111529 | 58 | 192 | 14.0 | 19.0 | 0.00 | 0.00 | 0.00 | 66 | 1029.6 |
| 20260507110015 | 58 | 205 | 9.0 | 14.0 | 0.00 | 0.00 | 0.00 | 67 | 1029.6 |
| 20260507104515 | 58 | 211 | 7.0 | 13.0 | 0.00 | 0.00 | 0.00 | 68 | 1029.7 |
| 20260507103026 | 58 | 187 | 12.0 | 21.0 | 0.00 | 0.00 | 0.00 | 69 | 1029.8 |
| 20260507101514 | 58 | 193 | 12.0 | 18.0 | 0.00 | 0.00 | 0.00 | 65 | 1029.8 |
| 20260507100013 | 58 | 210 | 10.0 | 15.0 | 0.00 | 0.00 | 0.00 | 63 | 1029.7 |
| 20260507094512 | 58 | 217 | 10.0 | 17.0 | 0.00 | 0.00 | 0.00 | 65 | 1029.6 |